Home   Weather   Alice Springs   Past weeks
Flag for Australia

Past Weather in Alice Springs, Northern Territory, Australia — Yesterday and Last 2 Weeks

Now
52 °F

Sunny.


Feels Like: 52 °F
Forecast: 69 / 47 °F
Wind: No wind

Location: Alice Springs Aerodrome

Current Time: May 27, 2019 at 8:49:17 am

Latest Report: May 27, 2019 at 8:00 am


Visibility: N/A

Pressure: 30.27 "Hg (28.23 "Hg at 581m altitude)

Humidity: 82%

Dew Point: 46 °F

Location of Alice SpringsLocation

Past Weather in Alice Springs — Graph

°F

Alice Springs Temperature Yesterday

Maximum temperature yesterday: 73 °F (at 2:00 pm)
Minimum temperature yesterday: 52 °F (at 6:30 am)
Average temperature yesterday: 63 °F

High & Low Weather Summary for the Past Weeks

 TemperatureHumidityPressure
High88 °F (May 17, 3:30 pm)100% (May 18, 11:00 am)30.33 "Hg (May 18, 11:00 am)
Low37 °F (May 13, 5:30 am)15% (May 13, 2:00 pm)30.01 "Hg (May 17, 2:00 pm)
Average64 °F56%30.18 "Hg
* Reported May 12 7:30 am — May 27 7:30 am, Alice Springs. Weather by CustomWeather, © 2019

Note: Actual official high and low records may vary slightly from our data, if they occured in-between our weather recording intervals... More about our weather records

Advertising

Alice Springs Weather History for the Previous 24 Hours

Scroll right to see more
 ConditionsComfort  
Time TempWeatherWind HumidityBarometerVisibility
7:30 am
Mon, May 27
48 °FClear.No wind87%30.24 "HgN/A
7:00 am46 °FClear.No wind87%30.24 "HgN/A
6:30 am48 °FClear.No wind82%30.24 "HgN/A
6:00 am48 °FClear.No wind87%30.21 "HgN/A
5:30 am48 °FClear.No wind82%30.21 "HgN/A
5:00 am48 °FClear.1 mph87%30.21 "HgN/A
4:30 am50 °FClear.6 mph82%30.21 "HgN/A
4:00 am50 °FClear.5 mph82%30.21 "HgN/A
3:30 am50 °FClear.5 mph82%30.18 "HgN/A
3:00 am52 °FClear.5 mph77%30.18 "HgN/A
2:30 am52 °FClear.No wind82%30.18 "HgN/A
2:00 am52 °FClear.5 mph77%30.18 "HgN/A
1:30 am54 °FClear.No wind72%30.18 "HgN/A
1:00 am52 °FClear.3 mph77%30.18 "HgN/A
12:30 am54 °FClear.2 mph77%30.18 "HgN/A
12:00 am54 °FClear.No wind72%30.21 "HgN/A
11:30 pm
Sun, May 26
55 °FClear.3 mph67%30.21 "HgN/A
11:00 pm55 °FClear.No wind67%30.21 "HgN/A
10:30 pm57 °FClear.3 mph63%30.21 "HgN/A
10:00 pm57 °FClear.3 mph63%30.21 "HgN/A
9:30 pm59 °FClear.5 mph55%30.21 "HgN/A
9:00 pm61 °FClear.6 mph52%30.21 "HgN/A
8:30 pm61 °FClear.5 mph52%30.21 "HgN/A
8:00 pm63 °FClear.7 mph49%30.18 "HgN/A
7:30 pm64 °FClear.7 mph46%30.18 "HgN/A
7:00 pm66 °FClear.7 mph40%30.15 "HgN/A
6:30 pm68 °FClear.8 mph38%30.15 "HgN/A
6:00 pm70 °FSunny.9 mph35%30.12 "HgN/A
5:30 pm72 °FSunny.9 mph33%30.12 "HgN/A
5:00 pm72 °FSunny.9 mph33%30.12 "HgN/A
4:30 pm73 °FSunny.10 mph31%30.12 "HgN/A
4:00 pm73 °FSunny.8 mph29%30.12 "HgN/A
3:30 pm73 °FSunny.9 mph31%30.12 "HgN/A
3:00 pm73 °FSunny.13 mph31%30.12 "HgN/A
2:30 pm73 °FSunny.7 mph31%30.12 "HgN/A
2:00 pm73 °FSunny.7 mph33%30.12 "HgN/A
1:30 pm72 °FSunny.8 mph33%30.12 "HgN/A
1:00 pm70 °FSunny.9 mph35%30.15 "HgN/A
12:30 pm70 °FSunny.8 mph35%30.18 "HgN/A
12:00 pm70 °FSunny.9 mph38%30.18 "HgN/A
11:30 am68 °FSunny.12 mph40%30.18 "HgN/A
11:00 am66 °FSunny.12 mph43%30.21 "HgN/A
10:30 am66 °FSunny.13 mph46%30.21 "HgN/A
10:00 am66 °FSunny.14 mph46%30.24 "HgN/A
9:30 am63 °FSunny.10 mph52%30.24 "HgN/A
9:00 am63 °FSunny.10 mph52%30.24 "HgN/A
8:30 am61 °FSunny.7 mph59%30.24 "HgN/A
8:00 am57 °FSunny.5 mph67%30.21 "HgN/A
Weather by CustomWeather, © 2019

See weather overview